Hoonah, AK

10:16 AM AKST on December 05, 2016 (GMT -0900)
Hoonah

Weather History for PAOH - February, 2013

Change the Weather History Date:

Wednesday, February 20, 2013

  Actual Average Record
Temperature  
Mean Temperature 36 °F -  
Max Temperature 37 °F 35 °F 44 °F (1998)
Min Temperature 34 °F 28 °F 18 °F (2007)
Degree Days  
Heating Degree Days 30    
Moisture  
Dew Point 36 °F    
Average Humidity 97    
Maximum Humidity 100    
Minimum Humidity 93    
Precipitation  
Precipitation 0.13 in - - ()
Sea Level Pressure  
Sea Level Pressure 29.39 in    
Wind  
Wind Speed 6 mph (ENE)    
Max Wind Speed 13 mph    
Max Gust Speed 20 mph    
Visibility 8 miles    
Events Rain    
Averages and records for this station are not official NWS values.
T = Trace of Precipitation, MM = Missing Value Source: NWS Daily Summary

Daily Weather History Graph

Daily Weather History Graph

Search for Another Location

Airport or City:

Trip Planner

Search our weather history database for the weather conditions in past years. The results will help you decide how hot, cold, wet, or windy it might be!

Date:

Astronomy

Feb. 20, 2013 Rise Set
Actual Time 7:19 AM AKST 5:12 PM AKST
Civil Twilight 6:39 AM AKST 5:53 PM AKST
Nautical Twilight 5:53 AM AKST 6:38 PM AKST
Astronomical Twilight 5:07 AM AKST 7:24 PM AKST
Moon 11:58 AM AKST (2/20) 4:28 AM AKST (2/20)
Length of Visible Light 11h 14m
Length of Day
9h 53m
Waxing Gibbous, 77% of the Moon is Illuminated
Feb 20
Waxing Gibbous
Feb 25
Full
Mar 4
Last Quarter
Mar 11
New
Mar 19
First Quarter

Hourly Weather History & Observations

Time (AKST) Temp. Windchill Dew Point Humidity Pressure Visibility Wind Dir Wind Speed Gust Speed Precip Events Conditions
12:08 AM 37.4 °F 33.8 °F 35.6 °F 93% 29.55 in 5.0 mi East 4.6 mph - 0.01 in   Overcast
12:56 AM 34.9 °F 27.7 °F 34.9 °F 100% 29.53 in 5.0 mi East 9.2 mph - 0.06 in   Overcast
1:35 AM 35.6 °F 28.6 °F 35.6 °F 100% 29.50 in 6.0 mi East 9.2 mph - 0.02 in   Overcast
1:56 AM 36.0 °F 28.5 °F 36.0 °F 100% 29.49 in 6.0 mi East 10.4 mph - 0.02 in   Overcast
2:56 AM 35.6 °F 27.5 °F 35.6 °F 100% 29.46 in 6.0 mi East 11.5 mph 19.6 mph N/A   Overcast
3:56 AM 36.0 °F 29.6 °F 36.0 °F 100% 29.44 in 8.0 mi East 8.1 mph - 0.02 in   Overcast
4:56 AM 36.9 °F 30.7 °F 36.0 °F 97% 29.42 in 9.0 mi ENE 8.1 mph - 0.00 in   Overcast
5:56 AM 37.4 °F 33.8 °F 37.4 °F 100% 29.41 in 10.0 mi NE 4.6 mph - N/A   Overcast
6:56 AM 34.9 °F - 34.9 °F 100% 29.43 in 10.0 mi Calm Calm - 0.00 in Rain Light Rain
7:32 AM 35.6 °F - 35.6 °F 100% 29.43 in 10.0 mi Calm Calm - 0.00 in   Overcast
7:56 AM 34.9 °F 32.0 °F 34.9 °F 100% 29.43 in 10.0 mi Variable 3.5 mph - 0.00 in   Mostly Cloudy
8:56 AM 35.6 °F - 35.6 °F 100% 29.42 in 10.0 mi Calm Calm - N/A Rain Light Rain
9:56 AM 37.9 °F 32.7 °F 36.9 °F 96% 29.42 in 10.0 mi East 6.9 mph - 0.00 in Rain Light Rain
10:32 AM 37.4 °F 30.8 °F 37.4 °F 100% 29.41 in 8.0 mi NE 9.2 mph - 0.00 in Rain Light Rain
10:56 AM 37.9 °F 31.5 °F 36.9 °F 96% 29.41 in 10.0 mi East 9.2 mph - 0.00 in   Mostly Cloudy
11:56 AM 37.4 °F 33.8 °F 35.6 °F 93% 29.39 in 5.0 mi East 4.6 mph - N/A Rain Light Rain
12:56 PM 37.9 °F 33.5 °F 36.9 °F 96% 29.40 in 10.0 mi East 5.8 mph - 0.00 in   Mostly Cloudy
1:24 PM 37.4 °F 32.8 °F 35.6 °F 93% 29.39 in 7.0 mi East 5.8 mph - 0.01 in Rain Light Rain
1:56 PM 36.9 °F 33.1 °F 36.0 °F 97% 29.39 in 6.0 mi East 4.6 mph - 0.02 in   Overcast
2:16 PM 37.4 °F 32.8 °F 37.4 °F 100% 29.37 in 10.0 mi East 5.8 mph - 0.00 in   Scattered Clouds
2:56 PM 37.4 °F - 37.4 °F 100% 29.37 in 7.0 mi Calm Calm - N/A Rain Light Rain
3:17 PM 37.4 °F 34.9 °F 37.4 °F 100% 29.36 in 10.0 mi East 3.5 mph - 0.00 in   Scattered Clouds
3:56 PM 36.9 °F 31.4 °F 36.0 °F 97% 29.37 in 7.0 mi ENE 6.9 mph - 0.00 in Rain Light Rain
4:00 PM 37.4 °F 32.8 °F 35.6 °F 93% 29.36 in 9.0 mi ENE 5.8 mph - 0.00 in Rain Light Rain
4:19 PM 37.4 °F 32.8 °F 35.6 °F 93% 29.36 in 9.0 mi ENE 5.8 mph - 0.00 in   Mostly Cloudy
4:56 PM 36.9 °F 31.4 °F 36.0 °F 97% 29.35 in 7.0 mi East 6.9 mph - 0.00 in   Overcast
5:56 PM 36.9 °F 32.2 °F 36.0 °F 97% 29.34 in 8.0 mi East 5.8 mph - 0.01 in   Overcast
6:56 PM 36.0 °F 29.6 °F 36.0 °F 100% 29.32 in 7.0 mi ENE 8.1 mph - 0.00 in   Overcast
7:56 PM 36.0 °F 31.1 °F 36.0 °F 100% 29.31 in 10.0 mi East 5.8 mph - 0.00 in   Overcast
8:56 PM 37.4 °F 29.3 °F 35.6 °F 93% 29.29 in 9.0 mi NE 12.7 mph 19.6 mph N/A   Overcast
9:56 PM 36.0 °F 28.5 °F 34.9 °F 96% 29.29 in 10.0 mi NE 10.4 mph - 0.00 in   Overcast
10:56 PM 36.9 °F 29.1 °F 34.9 °F 93% 29.28 in 10.0 mi ENE 11.5 mph - 0.00 in   Mostly Cloudy
11:56 PM 37.4 °F 31.4 °F 35.6 °F 93% 29.28 in 10.0 mi ENE 8.1 mph - N/A   Mostly Cloudy